• In Hungary
  • List of Countries
  • For 7 days
  • Water Temperature
  • Satellite Maps
  • Weather Map
  • News
  • Weather Widgets
  • user-avatar
    Login

    Hourly Weather Germering

    Today, 16 January, Tuesday

    Time Temperature Precipitation Wind Pressure Humidity
    00:00 +1°C° 0.3 mm 3 mps 707 mmHg 68%
    01:00 0°C° 0 mm 3 mps 707 mmHg 67%
    02:00 0°C° 0.3 mm 4 mps 706 mmHg 69%
    03:00 0°C° 0.3 mm 4 mps 706 mmHg 70%
    04:00 +1°C° 0.3 mm 4 mps 705 mmHg 72%
    05:00 +1°C° 0.2 mm 4 mps 705 mmHg 74%
    06:00 +1°C° 0.2 mm 5 mps 704 mmHg 76%
    07:00 +1°C° 0.2 mm 5 mps 703 mmHg 77%
    08:00 +2°C° 0.4 mm 5 mps 703 mmHg 79%
    09:00 +2°C° 0.4 mm 5 mps 703 mmHg 80%
    10:00 +3°C° 0.4 mm 6 mps 703 mmHg 82%
    11:00 +3°C° 1.8 mm 6 mps 702 mmHg 84%
    12:00 +3°C° 1.8 mm 5 mps 701 mmHg 86%
    13:00 +3°C° 1.8 mm 5 mps 701 mmHg 88%
    14:00 +3°C° 1.9 mm 5 mps 701 mmHg 88%
    15:00 +3°C° 1.9 mm 5 mps 701 mmHg 88%
    16:00 +3°C° 1.9 mm 5 mps 702 mmHg 88%
    17:00 +2°C° 0.9 mm 5 mps 702 mmHg 88%
    18:00 +2°C° 0.9 mm 5 mps 702 mmHg 87%
    19:00 +2°C° 0.9 mm 5 mps 702 mmHg 87%
    20:00 +2°C° 0.4 mm 5 mps 702 mmHg 87%
    21:00 +1°C° 0.4 mm 5 mps 702 mmHg 87%
    22:00 +1°C° 0.4 mm 4 mps 702 mmHg 87%
    23:00 +1°C° 0.5 mm 5 mps 701 mmHg 85%

    Tomorrow, 17 January, Wednesday

    Time Temperature Precipitation Wind Pressure Humidity
    00:00 +1°C° 0.5 mm 6 mps 701 mmHg 83%
    01:00 +1°C° 0.5 mm 6 mps 701 mmHg 82%
    02:00 +1°C° 0.6 mm 6 mps 701 mmHg 83%
    03:00 +1°C° 0.6 mm 6 mps 700 mmHg 84%
    04:00 -1°C° 0.6 mm 6 mps 700 mmHg 85%
    05:00 -1°C° 0.7 mm 6 mps 701 mmHg 84%
    06:00 -1°C° 0.7 mm 7 mps 701 mmHg 83%
    07:00 -2°C° 0.7 mm 7 mps 701 mmHg 82%
    08:00 -2°C° 0.4 mm 7 mps 702 mmHg 82%
    09:00 -3°C° 0.4 mm 7 mps 703 mmHg 81%
    10:00 -3°C° 0.4 mm 7 mps 704 mmHg 80%
    11:00 -4°C° 0.2 mm 8 mps 704 mmHg 76%
    12:00 -4°C° 0.2 mm 8 mps 705 mmHg 73%
    13:00 -4°C° 0.2 mm 8 mps 706 mmHg 69%
    14:00 -4°C° 0.1 mm 8 mps 706 mmHg 71%
    15:00 -3°C° 0.1 mm 7 mps 707 mmHg 74%
    16:00 -4°C° 0.1 mm 7 mps 707 mmHg 76%
    17:00 -4°C° 0.2 mm 7 mps 708 mmHg 77%
    18:00 -4°C° 0.2 mm 8 mps 708 mmHg 78%
    19:00 -4°C° 0.2 mm 8 mps 709 mmHg 79%
    20:00 -4°C° 0.1 mm 8 mps 709 mmHg 80%
    21:00 -4°C° 0.1 mm 8 mps 710 mmHg 80%
    22:00 -3°C° 0.1 mm 7 mps 711 mmHg 81%
    23:00 -3°C° 0.2 mm 7 mps 711 mmHg 81%

    Day after tomorrow, 18 January, Thursday

    Time Temperature Precipitation Wind Pressure Humidity
    00:00 -3°C° 0.2 mm 7 mps 711 mmHg 82%
    01:00 -3°C° 0.2 mm 7 mps 711 mmHg 83%
    02:00 -3°C° 0.3 mm 7 mps 711 mmHg 83%
    03:00 -3°C° 0.3 mm 7 mps 711 mmHg 84%
    04:00 -3°C° 0.3 mm 6 mps 711 mmHg 85%
    05:00 -2°C° 0.4 mm 6 mps 710 mmHg 84%
    06:00 -2°C° 0.4 mm 6 mps 709 mmHg 83%
    07:00 -2°C° 0.4 mm 7 mps 709 mmHg 82%
    08:00 -1°C° 0.2 mm 8 mps 708 mmHg 81%
    09:00 0°C° 0.2 mm 9 mps 708 mmHg 80%
    10:00 +1°C° 0.2 mm 10 mps 707 mmHg 79%
    11:00 +1°C° 0.1 mm 10 mps 706 mmHg 80%
    12:00 +2°C° 0.1 mm 10 mps 706 mmHg 80%
    13:00 +3°C° 0.1 mm 10 mps 705 mmHg 80%
    14:00 +3°C° 0.3 mm 10 mps 705 mmHg 80%
    15:00 +3°C° 0.3 mm 10 mps 705 mmHg 80%
    16:00 +4°C° 0.3 mm 11 mps 704 mmHg 79%
    17:00 +5°C° 0.3 mm 10 mps 704 mmHg 79%
    18:00 +5°C° 0.3 mm 10 mps 705 mmHg 79%
    19:00 +5°C° 0.3 mm 9 mps 705 mmHg 80%
    20:00 +4°C° 1.3 mm 8 mps 705 mmHg 82%
    21:00 +4°C° 1.3 mm 7 mps 705 mmHg 85%
    22:00 +4°C° 1.3 mm 6 mps 705 mmHg 87%
    23:00 +5°C° 1.6 mm 5 mps 705 mmHg 88%

    19 January, Friday

    Time Temperature Precipitation Wind Pressure Humidity
    00:00 +5°C° 1.6 mm 5 mps 704 mmHg 89%
    01:00 +3°C° 1.6 mm 5 mps 704 mmHg 90%
    02:00 +3°C° 1.9 mm 5 mps 704 mmHg 90%
    03:00 +3°C° 1.9 mm 5 mps 704 mmHg 90%
    04:00 +3°C° 1.9 mm 5 mps 704 mmHg 89%
    05:00 +3°C° 1.8 mm 4 mps 704 mmHg 90%
    06:00 +3°C° 1.8 mm 4 mps 704 mmHg 91%
    07:00 +2°C° 1.8 mm 3 mps 704 mmHg 91%
    08:00 +2°C° 0.9 mm 3 mps 705 mmHg 91%
    09:00 +2°C° 0.9 mm 3 mps 705 mmHg 90%
    10:00 0°C° 0.9 mm 4 mps 706 mmHg 89%
    11:00 +1°C° 0.2 mm 4 mps 706 mmHg 86%
    12:00 +1°C° 0.2 mm 4 mps 706 mmHg 84%
    13:00 +1°C° 0.2 mm 4 mps 707 mmHg 81%
    14:00 +2°C° 0.2 mm 3 mps 707 mmHg 83%
    15:00 +2°C° 0.2 mm 2 mps 707 mmHg 84%
    16:00 +2°C° 0.2 mm 2 mps 707 mmHg 86%
    17:00 +1°C° 0.2 mm 2 mps 707 mmHg 87%
    18:00 +1°C° 0.2 mm 2 mps 707 mmHg 89%
    19:00 -1°C° 0.2 mm 2 mps 707 mmHg 91%
    20:00 -1°C° 0.2 mm 2 mps 707 mmHg 91%
    21:00 -1°C° 0.2 mm 2 mps 707 mmHg 91%
    22:00 -1°C° 0.2 mm 2 mps 707 mmHg 92%
    23:00 -1°C° 0.1 mm 3 mps 707 mmHg 91%

    20 January, Saturday

    Time Temperature Precipitation Wind Pressure Humidity
    00:00 -1°C° 0.1 mm 3 mps 707 mmHg 90%
    01:00 -1°C° 0.1 mm 3 mps 706 mmHg 90%
    02:00 -2°C° 0 mm 3 mps 706 mmHg 89%
    03:00 -2°C° 0 mm 3 mps 706 mmHg 89%
    04:00 -4°C° 0 mm 3 mps 705 mmHg 89%
    05:00 -4°C° 0.1 mm 3 mps 705 mmHg 89%
    06:00 -3°C° 0.1 mm 2 mps 706 mmHg 90%
    07:00 -3°C° 0.1 mm 2 mps 706 mmHg 90%
    08:00 -2°C° 0.2 mm 2 mps 706 mmHg 90%
    09:00 -2°C° 0.2 mm 2 mps 706 mmHg 90%
    10:00 -2°C° 0.2 mm 2 mps 706 mmHg 90%
    11:00 -1°C° 0.3 mm 2 mps 706 mmHg 90%
    12:00 -1°C° 0.3 mm 2 mps 706 mmHg 89%
    13:00 -1°C° 0.3 mm 2 mps 706 mmHg 89%
    14:00 -1°C° 0.2 mm 2 mps 707 mmHg 88%
    15:00 -1°C° 0.2 mm 2 mps 707 mmHg 88%
    16:00 -1°C° 0.2 mm 3 mps 707 mmHg 87%
    17:00 -2°C° 0.1 mm 2 mps 708 mmHg 89%
    18:00 -2°C° 0.1 mm 2 mps 709 mmHg 90%
    19:00 -3°C° 0.1 mm 2 mps 709 mmHg 91%
    20:00 -1°C° 0.1 mm 1 mps 710 mmHg 91%
    21:00 -1°C° 0.1 mm 1 mps 710 mmHg 91%
    22:00 -1°C° 0.1 mm 1 mps 711 mmHg 92%
    23:00 -2°C° 0.1 mm 1 mps 711 mmHg 93%

    21 January, Sunday

    Time Temperature Precipitation Wind Pressure Humidity
    00:00 -2°C° 0.1 mm 1 mps 711 mmHg 94%
    01:00 -3°C° 0.1 mm 1 mps 711 mmHg 95%
    02:00 -3°C° 0.1 mm 1 mps 711 mmHg 95%
    03:00 -5°C° 0.1 mm 2 mps 711 mmHg 95%
    04:00 -5°C° 0.1 mm 2 mps 711 mmHg 95%
    05:00 -5°C° 0.1 mm 2 mps 712 mmHg 94%
    06:00 -4°C° 0.1 mm 2 mps 712 mmHg 93%
    07:00 -4°C° 0.1 mm 2 mps 712 mmHg 93%
    08:00 -4°C° 0.1 mm 2 mps 712 mmHg 90%
    09:00 -4°C° 0.1 mm 2 mps 713 mmHg 88%
    10:00 -4°C° 0.1 mm 2 mps 713 mmHg 85%
    11:00 -4°C° 0.1 mm 3 mps 713 mmHg 84%
    12:00 -4°C° 0.1 mm 3 mps 713 mmHg 82%
    13:00 -2°C° 0.1 mm 3 mps 713 mmHg 80%
    14:00 -4°C° 0.1 mm 3 mps 713 mmHg 81%
    15:00 -4°C° 0.1 mm 3 mps 713 mmHg 83%
    16:00 -4°C° 0.1 mm 3 mps 713 mmHg 84%
    17:00 -4°C° 0.2 mm 3 mps 714 mmHg 86%
    18:00 -5°C° 0.2 mm 3 mps 715 mmHg 88%
    19:00 -5°C° 0.2 mm 3 mps 715 mmHg 91%
    20:00 -5°C° 0.1 mm 3 mps 716 mmHg 91%
    21:00 -5°C° 0.1 mm 3 mps 716 mmHg 90%
    22:00 -5°C° 0.1 mm 3 mps 717 mmHg 90%
    23:00 -5°C° 0.1 mm 2 mps 717 mmHg 90%
    Show more